Home > Weather > Mashhad > Past weeks

Flag for Iran Past Weather in Mashhad, Iran — Yesterday and Last 2 Weeks

Now
93 °F

Partly sunny.


Feels Like: 89 °F
Forecast: 72 / 88 °F
Wind: 18 mph from East

Location: Mashhad Airport

Current Time: May 31, 2016 at 2:50:10 PM

Latest Report: May 31, 2016 at 2:30 PM


Visibility: N/A

Pressure: 29.74 "Hg (26.67 "Hg at 981m altitude)

Humidity: 11%

Dew Point: 30 °F

Location of MashhadLocation

Past Weather in Mashhad — Graph

°F

Mashhad Temperature Yesterday

Maximum temperature yesterday: 97 °F (at 2:30 PM)
Minimum temperature yesterday: 64 °F (at 5:00 AM)
Average temperature yesterday: 83 °F

High & Low Weather Summary for the Past Weeks

 TemperatureHumidityPressure
High97 °F (May 30, 2:30 PM)94% (May 18, 5:30 AM)30.09 "Hg (May 18, 5:30 AM)
Low57 °F (May 22, 4:00 AM)7% (May 25, 3:30 PM)29.65 "Hg (May 25, 5:00 PM)
Average77 °F39%29.94 "Hg
* Reported May 16 1:30 PM — May 31 1:30 PM, Mashhad, Weather by CustomWeather, © 2016

Note: Actual official high and low records may vary slightly from our data, if they occured in-between our weather recording intervals... More about our weather records

Advertising

Mashhad Weather History for the Previous 24 Hours

Scroll right to see more
 ConditionsComfort  
Time TempWeatherWind HumidityBarometerVisibility
1:30 PM
Tue, May 31
93 °FPartly sunny.18 mph11%29.74 "HgN/A
1:00 PM91 °FPartly sunny.14 mph13%29.77 "HgN/A
12:30 PM91 °FBroken clouds.12 mph14%29.77 "HgN/A
12:00 PM88 °FBroken clouds.12 mph16%29.77 "HgN/A
11:30 AM90 °FBroken clouds.9 mph17%29.77 "HgN/A
11:00 AM86 °FSunny.7 mph19%29.80 "Hg10 mi
10:30 AM86 °FSunny.7 mph20%29.80 "Hg10 mi
10:00 AM86 °FSunny.5 mph19%29.80 "Hg10 mi
9:30 AM84 °FSunny.9 mph22%29.80 "Hg10 mi
9:00 AM82 °FSunny.12 mph28%29.80 "Hg10 mi
8:30 AM82 °FSunny.9 mph25%29.80 "Hg10 mi
8:00 AM81 °FSunny.7 mph24%29.77 "Hg10 mi
7:30 AM79 °FSunny.7 mph23%29.77 "Hg10 mi
7:00 AM77 °FSunny.9 mph22%29.77 "Hg10 mi
6:30 AM73 °FClear.9 mph23%29.77 "Hg10 mi
6:00 AM72 °FClear.7 mph27%29.77 "Hg10 mi
5:30 AM68 °FClear.5 mph28%29.77 "Hg10 mi
5:00 AM72 °FClear.5 mph22%29.74 "Hg10 mi
4:30 AM72 °FClear.7 mph22%29.74 "Hg10 mi
4:00 AM72 °FClear.5 mph23%29.74 "Hg10 mi
3:30 AM73 °FClear.7 mph23%29.74 "Hg10 mi
3:00 AM72 °FClear.5 mph27%29.77 "Hg10 mi
2:30 AM75 °FClear.No wind19%29.77 "Hg10 mi
2:00 AM75 °FClear.5 mph19%29.77 "Hg10 mi
1:30 AM79 °FClear.No wind15%29.77 "Hg10 mi
1:00 AM79 °FClear.9 mph16%29.77 "Hg10 mi
12:30 AM81 °FClear.9 mph13%29.77 "Hg10 mi
12:00 AM81 °FClear.5 mph14%29.77 "Hg10 mi
11:30 PM
Mon, May 30
82 °FClear.9 mph12%29.77 "Hg10 mi
11:00 PM81 °FClear.7 mph17%29.77 "Hg10 mi
10:30 PM81 °FPassing clouds.7 mph15%29.77 "HgN/A
10:00 PM81 °FPassing clouds.5 mph17%29.77 "HgN/A
9:30 PM82 °FPassing clouds.5 mph14%29.77 "HgN/A
9:00 PM84 °FScattered clouds.5 mph13%29.77 "HgN/A
8:30 PM86 °FScattered clouds.5 mph11%29.77 "HgN/A
8:00 PM86 °FScattered clouds.9 mph12%29.74 "HgN/A
7:30 PM88 °FScattered clouds.9 mph10%29.74 "HgN/A
7:00 PM90 °FScattered clouds.9 mph9%29.74 "HgN/A
6:30 PM91 °FScattered clouds.14 mph10%29.74 "HgN/A
6:00 PM93 °FScattered clouds.14 mph9%29.77 "HgN/A
5:30 PM95 °FScattered clouds.12 mph8%29.77 "HgN/A
5:00 PM97 °FScattered clouds.12 mph8%29.77 "HgN/A
4:30 PM97 °FScattered clouds.16 mph7%29.77 "HgN/A
3:30 PM97 °FScattered clouds.9 mph7%29.77 "HgN/A
3:00 PM97 °FScattered clouds.9 mph7%29.80 "HgN/A
2:30 PM97 °FThunderstorms. Cloudy.N/A8%29.80 "HgN/A
2:00 PM95 °FPassing clouds.12 mph9%29.80 "HgN/A
Weather by CustomWeather, © 2016

See weather overviewHow to use our weather pages